Location: Anglesey
(53.1800°N, 4.2200°W)
Time: 08:53:14
(UTC+01:00)

ISS - Pass Details

Date: 08 October 2017
Orbit: 400 x 408 km, 51.6° (Epoch: 24 October)

Event Time Altitude Azimuth Distance (km) Brightness Sun altitude
Rises 20:10:49 0° 277° (W) 2,328 2.0 -14.9°
Reaches altitude 10° 20:12:56 10° 272° (W) 1,468 0.4 -15.2°
Maximum altitude 20:16:07 48° 197° (SSW) 543 -3.2 -15.7°
Enters shadow 20:17:16 32° 142° (SE) 733 -2.9 -15.8°
